Location: Street
(51.1247°N, 2.7429°W)
Time: 02:40:01
(UTC+00:00)

X-37B - Pass Details

Date: 05 November 2020
Orbit: 384 x 390 km, 45.0° (Epoch: 26 November)

Event Time Altitude Azimuth Distance (km) Brightness Sun altitude
Exits shadow 05:18:03 13° 193° (SSW) 1,236 3.0 -17.9°
Maximum altitude 05:19:31 17° 161° (SSE) 1,065 3.0 -17.7°
Drops below altitude 10° 05:21:41 10° 117° (ESE) 1,414 4.5 -17.4°
Sets 05:24:13 0° 97° (E) 2,270 6.3 -17.0°
